Location: Shenandoah County Park
(38.9356°N, 78.4524°W)
Time: 13:12:26
(UTC-05:00)

Vanguard 2 Rocket - Pass Details

Date: 04 December 2023
Orbit: 555 x 3309 km, 32.9° (Epoch: 02 March)

Event Time Altitude Azimuth Distance (km) Brightness Sun altitude
Rises 15:33:05 0° 247° (WSW) 6,434 12.8 11.7°
Reaches altitude 10° 15:36:56 10° 245° (WSW) 5,678 12.9 11.1°
Maximum altitude 15:55:38 68° 167° (SSE) 3,470 10.1 8.3°
Drops below altitude 10° 16:14:22 10° 90° (E) 5,694 10.5 5.3°
Sets 16:18:14 0° 88° (E) 6,453 10.7 4.7°
